EW4077 Weather Reports


time (UTC)temp
F
wind
direction
speed
knots
gust
knots
rain 1hr
in
rain 24hr
in
rain mn
in
humidity
%
barometer
mb
20260507094541 59 246 0.0 1.7 0.00 0.00 0.00 86 1016.2
20260507093037 60 279 0.0 0.0 0.00 0.00 0.00 85 1016.4
20260507091540 59 267 0.0 0.0 0.00 0.00 0.00 84 1016.5
20260507090033 59 292 0.0 0.9 0.00 0.00 0.00 85 1016.7
20260507084541 60 292 0.9 1.7 0.00 0.00 0.00 85 1016.8
20260507083031 59 262 0.0 0.9 0.00 0.00 0.00 86 1016.9
20260507081536 60 269 0.0 0.9 0.00 0.00 0.00 86 1016.9
20260507080029 60 211 0.0 1.7 0.00 0.00 0.00 85 1017.0
20260507074530 60 156 0.9 2.6 0.00 0.00 0.00 85 1017.0
20260507073027 61 175 0.0 4.3 0.00 0.00 0.00 82 1017.1
20260507071525 60 246 1.7 4.3 0.00 0.00 0.00 84 1017.2
20260507070021 60 252 0.0 0.9 0.00 0.00 0.00 87 1017.2
20260507064520 60 148 0.0 1.7 0.00 0.00 0.00 86 1017.2
20260507063024 60 149 0.0 1.7 0.00 0.00 0.00 86 1017.2
20260507061519 61 176 0.0 3.5 0.00 0.00 0.00 86 1017.3
20260507060018 61 257 1.7 3.5 0.00 0.00 0.00 83 1017.3
20260507054517 61 226 0.0 4.3 0.00 0.00 0.00 83 1017.3
20260507053017 61 263 1.7 3.5 0.00 0.00 0.00 79 1017.3
20260507051516 61 281 1.7 4.3 0.00 0.00 0.00 84 1017.3
20260507050024 61 214 1.7 7.0 0.00 0.00 0.00 86 1017.2
20260507044515 61 246 3.5 7.0 0.00 0.00 0.00 85 1017.2
20260507043022 61 258 4.3 7.0 0.00 0.00 0.00 84 1017.2
20260507041513 61 240 3.5 9.6 0.00 0.00 0.00 85 1017.1
20260507040013 61 254 5.2 9.6 0.00 0.00 0.00 85 1016.9
20260507034520 61 261 4.3 8.7 0.00 0.00 0.00 85 1016.7
20260507033015 62 244 3.5 7.8 0.00 0.00 0.00 83 1016.5
20260507031510 62 221 5.2 8.7 0.00 0.00 0.00 82 1016.3
20260507030010 62 254 6.1 10.4 0.00 0.00 0.00 82 1016.2
20260507024514 63 214 4.3 8.7 0.00 0.00 0.00 77 1016.2
20260507023009 63 264 6.1 12.2 0.00 0.00 0.00 73 1015.9
20260507021510 63 242 6.1 11.3 0.00 0.00 0.00 80 1015.8
20260507020009 63 256 8.7 13.9 0.00 0.00 0.00 78 1015.7
20260507014507 63 272 11.3 14.8 0.00 0.00 0.00 79 1015.6
20260507013008 63 258 9.6 16.5 0.00 0.00 0.00 77 1015.5
20260507011511 63 245 7.8 13.9 0.00 0.00 0.00 78 1015.4
20260507010005 64 251 9.6 15.6 0.00 0.00 0.00 78 1015.3
20260507004504 64 247 11.3 15.6 0.00 0.00 0.00 78 1015.3
20260507003004 64 262 10.4 17.4 0.00 0.00 0.00 80 1015.4
20260507001507 64 240 10.4 15.6 0.00 0.00 0.00 79 1015.3
20260507000002 64 263 7.8 17.4 0.00 0.00 0.00 79 1015.2
20260506234603 64 244 11.3 16.5 0.00 0.00 0.00 79 1015.3
20260506233101 64 264 10.4 16.5 0.00 0.00 0.00 77 1015.3
20260506231605 64 246 11.3 16.5 0.00 0.00 0.00 77 1015.5
20260506230104 64 238 9.6 15.6 0.00 0.00 0.00 77 1015.7
20260506224550 64 247 10.4 14.8 0.00 0.00 0.00 76 1015.9
20260506223048 64 225 8.7 14.8 0.00 0.00 0.00 76 1016.1
20260506221603 65 265 6.1 11.3 0.00 0.00 0.00 75 1016.4
20260506220043 65 250 5.2 12.2 0.00 0.00 0.00 77 1016.6
20260506214541 65 243 8.7 11.3 0.00 0.00 0.00 74 1016.7
20260506213038 65 248 7.8 11.3 0.00 0.00 0.00 74 1016.9
20260506211635 65 188 5.2 8.7 0.00 0.00 0.00 74 1017.1
20260506210048 65 223 5.2 8.7 0.00 0.00 0.00 69 1017.3
20260506204533 66 205 3.5 6.1 0.00 0.00 0.00 63 1017.4
20260506203036 65 190 6.1 7.8 0.00 0.00 0.00 75 1017.5
20260506201530 65 144 4.3 7.0 0.00 0.00 0.00 76 1017.7
20260506200032 65 175 5.2 7.0 0.00 0.00 0.00 75 1017.8
20260506194529 66 155 3.5 7.8 0.00 0.00 0.00 75 1018.0
20260506193126 65 150 4.3 7.0 0.00 0.00 0.00 78 1018.1
20260506191527 64 148 5.2 7.8 0.00 0.00 0.00 80 1018.3
20260506190029 64 132 6.1 8.7 0.00 0.00 0.00 77 1018.3
20260506184534 65 121 2.6 7.0 0.00 0.00 0.00 77 1018.5
20260506183023 65 125 3.5 7.8 0.00 0.00 0.00 76 1018.5
20260506181534 64 129 3.5 7.0 0.00 0.00 0.00 78 1018.6
20260506180020 64 101 3.5 7.0 0.00 0.00 0.00 77 1018.6
20260506174519 64 98 2.6 6.1 0.00 0.00 0.00 76 1018.6
20260506173019 64 102 3.5 6.1 0.00 0.00 0.00 74 1018.5
20260506171518 63 63 3.5 5.2 0.00 0.00 0.00 76 1018.5
20260506170025 64 90 3.5 4.3 0.00 0.00 0.00 74 1018.5
20260506164537 64 88 1.7 5.2 0.00 0.00 0.00 74 1018.5
20260506163014 65 126 0.9 2.6 0.00 0.00 0.00 73 1018.4
20260506161511 64 104 0.9 5.2 0.00 0.00 0.00 74 1018.3
20260506160009 64 114 1.7 5.2 0.00 0.00 0.00 74 1018.4
20260506154507 62 71 2.6 4.3 0.00 0.00 0.00 76 1018.4
20260506153005 62 90 2.6 4.3 0.00 0.00 0.00 77 1018.4
20260506151605 62 78 1.7 4.3 0.00 0.00 0.00 79 1018.4
20260506150108 61 58 2.6 4.3 0.00 0.00 0.00 78 1018.4
20260506144556 61 57 1.7 4.3 0.00 0.00 0.00 79 1018.4
20260506143054 61 92 1.7 3.5 0.00 0.00 0.00 81 1018.3
20260506141551 61 63 1.7 2.6 0.00 0.00 0.00 82 1018.2
20260506140049 60 26 0.0 2.6 0.00 0.00 0.00 84 1018.1
20260506134551 58 294 0.0 0.0 0.00 0.00 0.00 87 1018.0
20260506133101 57 286 0.0 0.0 0.00 0.00 0.00 88 1017.9
20260506131545 56 272 0.0 0.0 0.00 0.00 0.00 89 1017.7
20260506130043 56 272 0.0 0.0 0.00 0.00 0.00 89 1017.5
20260506124542 56 272 0.0 0.0 0.00 0.00 0.00 89 1017.4
20260506123041 56 272 0.0 0.0 0.00 0.00 0.00 89 1017.3
20260506121540 56 272 0.0 0.0 0.00 0.00 0.00 89 1017.3
20260506120053 56 272 0.0 0.0 0.00 0.00 0.00 89 1017.2
20260506114537 57 272 0.0 0.0 0.00 0.00 0.00 89 1017.2
20260506113036 57 265 0.0 0.0 0.00 0.00 0.00 89 1017.1
20260506111539 57 214 0.0 0.9 0.00 0.00 0.00 89 1017.1
20260506110033 57 214 0.0 0.9 0.00 0.00 0.00 89 1017.1
20260506104539 57 214 0.0 0.0 0.00 0.00 0.00 87 1017.1
20260506103039 58 214 0.0 0.0 0.00 0.00 0.00 86 1017.1
20260506101528 58 214 0.0 0.9 0.00 0.00 0.00 86 1017.0
20260506100025 59 214 0.0 1.7 0.00 0.01 0.00 85 1017.1